contact:dominique.lefevre@mio.osupytheas.fr, maurice.libes@osupytheas.fr, didier.mallarino@osupytheas.fr
Project:EMSO http://www.emso-fr.org/EMSO-France
Depth: 2436.0 m
Title:EMSO Ligure Ouest : Data MII capteur MICROCAT
DateTime_Computer,Latitude,Longitude,Temperature,Conductivity,Pressure,DateTime_Instrument
DateTime_Computer,Latitude,Longitude,degC,S m-1,dbar,DateTime_Instrument
2019-07-23T00:00:22Z,42.805,6.029,13.2953,4.59955,2470.03,2019-7-23T02:00:41Z
2019-07-23T00:03:25Z,42.805,6.029,13.2955,4.59956,2469.993,2019-7-23T02:03:44Z
2019-07-23T00:06:28Z,42.805,6.029,13.2954,4.59956,2469.993,2019-7-23T02:06:47Z
2019-07-23T00:09:31Z,42.805,6.029,13.2952,4.59956,2469.97,2019-7-23T02:09:50Z
2019-07-23T00:12:34Z,42.805,6.029,13.2955,4.59957,2469.947,2019-7-23T02:12:53Z
2019-07-23T00:15:38Z,42.805,6.029,13.2955,4.59954,2469.97,2019-7-23T02:15:56Z
2019-07-23T00:18:41Z,42.805,6.029,13.2956,4.59955,2469.984,2019-7-23T02:19:00Z
2019-07-23T00:21:44Z,42.805,6.029,13.2951,4.59956,2469.97,2019-7-23T02:22:03Z
2019-07-23T00:24:47Z,42.805,6.029,13.2952,4.59954,2469.97,2019-7-23T02:25:06Z
2019-07-23T00:27:50Z,42.805,6.029,13.2956,4.59955,2469.984,2019-7-23T02:28:09Z
2019-07-23T00:30:53Z,42.805,6.029,13.2958,4.59955,2469.97,2019-7-23T02:31:12Z
2019-07-23T00:33:57Z,42.805,6.029,13.2957,4.59955,2469.993,2019-7-23T02:34:16Z
2019-07-23T00:37:00Z,42.805,6.029,13.2955,4.59954,2470.007,2019-7-23T02:37:19Z
2019-07-23T00:40:03Z,42.805,6.029,13.2952,4.59955,2469.96,2019-7-23T02:40:22Z
2019-07-23T00:43:06Z,42.805,6.029,13.2958,4.59954,2469.984,2019-7-23T02:43:25Z
2019-07-23T00:46:09Z,42.805,6.029,13.2953,4.59954,2469.984,2019-7-23T02:46:28Z
2019-07-23T00:49:13Z,42.805,6.029,13.2954,4.59954,2469.947,2019-7-23T02:49:32Z
2019-07-23T00:52:16Z,42.805,6.029,13.2955,4.59954,2469.984,2019-7-23T02:52:35Z
2019-07-23T00:55:19Z,42.805,6.029,13.2956,4.59954,2469.96,2019-7-23T02:55:38Z
2019-07-23T00:58:22Z,42.805,6.029,13.2956,4.59954,2469.937,2019-7-23T02:58:41Z
2019-07-23T01:01:25Z,42.805,6.029,13.2956,4.59956,2469.947,2019-7-23T03:01:44Z
2019-07-23T01:04:29Z,42.805,6.029,13.2954,4.59954,2469.947,2019-7-23T03:04:47Z
2019-07-23T01:07:32Z,42.805,6.029,13.2961,4.59956,2469.96,2019-7-23T03:07:51Z
2019-07-23T01:10:35Z,42.805,6.029,13.2955,4.59954,2469.947,2019-7-23T03:10:54Z
2019-07-23T01:13:38Z,42.805,6.029,13.2954,4.59955,2469.956,2019-7-23T03:13:57Z
2019-07-23T01:16:41Z,42.805,6.029,13.2952,4.59954,2469.984,2019-7-23T03:17:00Z
2019-07-23T01:19:45Z,42.805,6.029,13.2954,4.59954,2469.937,2019-7-23T03:20:03Z
2019-07-23T01:22:48Z,42.805,6.029,13.2954,4.59955,2469.96,2019-7-23T03:23:07Z
2019-07-23T01:25:51Z,42.805,6.029,13.2957,4.59953,2469.97,2019-7-23T03:26:10Z
2019-07-23T01:28:54Z,42.805,6.029,13.2957,4.59955,2469.984,2019-7-23T03:29:13Z
2019-07-23T01:31:57Z,42.805,6.029,13.2958,4.59954,2469.96,2019-7-23T03:32:16Z
2019-07-23T01:35:01Z,42.805,6.029,13.2957,4.59954,2469.937,2019-7-23T03:35:20Z
2019-07-23T01:38:04Z,42.805,6.029,13.2957,4.59954,2469.947,2019-7-23T03:38:23Z
2019-07-23T01:41:07Z,42.805,6.029,13.2956,4.59954,2469.937,2019-7-23T03:41:26Z
2019-07-23T01:44:10Z,42.805,6.029,13.2952,4.59954,2469.947,2019-7-23T03:44:29Z
2019-07-23T01:47:14Z,42.805,6.029,13.2953,4.59953,2469.937,2019-7-23T03:47:32Z
2019-07-23T01:50:17Z,42.805,6.029,13.2954,4.59955,2469.876,2019-7-23T03:50:36Z
2019-07-23T01:53:20Z,42.805,6.029,13.2953,4.59954,2469.923,2019-7-23T03:53:39Z
2019-07-23T01:56:23Z,42.805,6.029,13.2952,4.59954,2469.9,2019-7-23T03:56:42Z
2019-07-23T01:59:26Z,42.805,6.029,13.2953,4.59954,2469.984,2019-7-23T03:59:45Z
2019-07-23T02:02:30Z,42.805,6.029,13.2952,4.59953,2469.947,2019-7-23T04:02:49Z
2019-07-23T02:05:33Z,42.805,6.029,13.2953,4.59953,2469.937,2019-7-23T04:05:52Z
2019-07-23T02:08:36Z,42.805,6.029,13.2956,4.59953,2469.923,2019-7-23T04:08:55Z
2019-07-23T02:11:39Z,42.805,6.029,13.2957,4.59954,2469.914,2019-7-23T04:11:58Z
2019-07-23T02:14:42Z,42.805,6.029,13.2957,4.59954,2469.923,2019-7-23T04:15:01Z
2019-07-23T02:17:45Z,42.805,6.029,13.2953,4.59955,2469.89,2019-7-23T04:18:04Z
2019-07-23T02:20:49Z,42.805,6.029,13.2952,4.59954,2469.9,2019-7-23T04:21:08Z
2019-07-23T02:23:52Z,42.805,6.029,13.2958,4.59954,2469.923,2019-7-23T04:24:11Z
2019-07-23T02:26:55Z,42.805,6.029,13.2956,4.59954,2469.937,2019-7-23T04:27:14Z
2019-07-23T02:29:58Z,42.805,6.029,13.2953,4.59954,2469.876,2019-7-23T04:30:17Z
2019-07-23T02:33:02Z,42.805,6.029,13.2953,4.59955,2469.914,2019-7-23T04:33:20Z
2019-07-23T02:36:05Z,42.805,6.029,13.2956,4.59954,2469.9,2019-7-23T04:36:24Z
2019-07-23T02:39:08Z,42.805,6.029,13.2960,4.59954,2469.923,2019-7-23T04:39:27Z
2019-07-23T02:42:11Z,42.805,6.029,13.2953,4.59954,2469.9,2019-7-23T04:42:30Z
2019-07-23T02:45:14Z,42.805,6.029,13.2957,4.59955,2469.914,2019-7-23T04:45:33Z
2019-07-23T02:48:17Z,42.805,6.029,13.2955,4.59954,2469.914,2019-7-23T04:48:36Z
2019-07-23T02:51:21Z,42.805,6.029,13.2957,4.59953,2469.876,2019-7-23T04:51:40Z
2019-07-23T02:54:24Z,42.805,6.029,13.2957,4.59953,2469.9,2019-7-23T04:54:43Z
2019-07-23T02:57:27Z,42.805,6.029,13.2951,4.59954,2469.914,2019-7-23T04:57:46Z
2019-07-23T03:00:30Z,42.805,6.029,13.2952,4.59955,2469.9,2019-7-23T05:00:49Z
2019-07-23T03:03:33Z,42.805,6.029,13.2953,4.59955,2469.923,2019-7-23T05:03:52Z
2019-07-23T03:06:37Z,42.805,6.029,13.2953,4.59954,2469.876,2019-7-23T05:06:56Z
2019-07-23T03:09:40Z,42.805,6.029,13.2953,4.59954,2469.876,2019-7-23T05:09:59Z
2019-07-23T03:12:43Z,42.805,6.029,13.2953,4.59954,2469.914,2019-7-23T05:13:02Z
2019-07-23T03:15:46Z,42.805,6.029,13.2952,4.59955,2469.937,2019-7-23T05:16:05Z
2019-07-23T03:18:50Z,42.805,6.029,13.2956,4.59954,2469.876,2019-7-23T05:19:09Z
2019-07-23T03:21:53Z,42.805,6.029,13.2955,4.59956,2469.876,2019-7-23T05:22:12Z
2019-07-23T03:24:56Z,42.805,6.029,13.2955,4.59956,2469.867,2019-7-23T05:25:15Z
2019-07-23T03:27:59Z,42.805,6.029,13.2957,4.59954,2469.876,2019-7-23T05:28:18Z
2019-07-23T03:31:02Z,42.805,6.029,13.2956,4.59954,2469.89,2019-7-23T05:31:21Z
2019-07-23T03:34:06Z,42.805,6.029,13.2957,4.59954,2469.876,2019-7-23T05:34:24Z
2019-07-23T03:37:09Z,42.805,6.029,13.2958,4.59956,2469.9,2019-7-23T05:37:28Z
2019-07-23T03:40:12Z,42.805,6.029,13.2958,4.59954,2469.876,2019-7-23T05:40:31Z
2019-07-23T03:43:15Z,42.805,6.029,13.2953,4.59954,2469.9,2019-7-23T05:43:34Z
2019-07-23T03:46:18Z,42.805,6.029,13.2956,4.59954,2469.876,2019-7-23T05:46:37Z
2019-07-23T03:49:21Z,42.805,6.029,13.2957,4.59955,2469.867,2019-7-23T05:49:40Z
2019-07-23T03:52:25Z,42.805,6.029,13.2954,4.59955,2469.867,2019-7-23T05:52:44Z
2019-07-23T03:55:28Z,42.805,6.029,13.2952,4.59954,2469.853,2019-7-23T05:55:47Z
2019-07-23T03:58:31Z,42.805,6.029,13.2952,4.59954,2469.89,2019-7-23T05:58:50Z
2019-07-23T04:01:34Z,42.805,6.029,13.2953,4.59954,2469.867,2019-7-23T06:01:53Z
2019-07-23T04:04:37Z,42.805,6.029,13.2951,4.59954,2469.876,2019-7-23T06:04:56Z
2019-07-23T04:07:41Z,42.805,6.029,13.2953,4.59954,2469.853,2019-7-23T06:07:59Z
2019-07-23T04:10:44Z,42.805,6.029,13.2953,4.59954,2469.89,2019-7-23T06:11:03Z
2019-07-23T04:13:47Z,42.805,6.029,13.2953,4.59954,2469.853,2019-7-23T06:14:06Z
2019-07-23T04:16:50Z,42.805,6.029,13.2954,4.59955,2469.867,2019-7-23T06:17:09Z
2019-07-23T04:19:53Z,42.805,6.029,13.2958,4.59954,2469.9,2019-7-23T06:20:12Z
2019-07-23T04:22:56Z,42.805,6.029,13.2955,4.59955,2469.9,2019-7-23T06:23:15Z
2019-07-23T04:26:00Z,42.805,6.029,13.2954,4.59954,2469.853,2019-7-23T06:26:18Z
2019-07-23T04:29:03Z,42.805,6.029,13.2954,4.59954,2469.867,2019-7-23T06:29:22Z
2019-07-23T04:32:06Z,42.805,6.029,13.2951,4.59954,2469.89,2019-7-23T06:32:25Z
2019-07-23T04:35:09Z,42.805,6.029,13.2952,4.59955,2469.853,2019-7-23T06:35:28Z
2019-07-23T04:38:12Z,42.805,6.029,13.2958,4.59954,2469.853,2019-7-23T06:38:31Z
2019-07-23T04:41:15Z,42.805,6.029,13.2957,4.59956,2469.853,2019-7-23T06:41:34Z
2019-07-23T04:44:19Z,42.805,6.029,13.2955,4.59955,2469.853,2019-7-23T06:44:38Z
2019-07-23T04:47:22Z,42.805,6.029,13.2952,4.59955,2469.83,2019-7-23T06:47:41Z
2019-07-23T04:50:25Z,42.805,6.029,13.2958,4.59956,2469.867,2019-7-23T06:50:44Z
2019-07-23T04:53:28Z,42.805,6.029,13.2954,4.59955,2469.844,2019-7-23T06:53:47Z
2019-07-23T04:56:32Z,42.805,6.029,13.2955,4.59956,2469.867,2019-7-23T06:56:50Z
2019-07-23T04:59:35Z,42.805,6.029,13.2955,4.59954,2469.83,2019-7-23T06:59:54Z
2019-07-23T05:02:38Z,42.805,6.029,13.2953,4.59955,2469.876,2019-7-23T07:02:57Z
2019-07-23T05:05:41Z,42.805,6.029,13.2952,4.59953,2469.867,2019-7-23T07:06:00Z
2019-07-23T05:08:44Z,42.805,6.029,13.2959,4.59953,2469.853,2019-7-23T07:09:03Z
2019-07-23T05:11:47Z,42.805,6.029,13.2956,4.59954,2469.83,2019-7-23T07:12:06Z
2019-07-23T05:14:51Z,42.805,6.029,13.2957,4.59953,2469.853,2019-7-23T07:15:10Z
2019-07-23T05:17:54Z,42.805,6.029,13.2951,4.59955,2469.867,2019-7-23T07:18:13Z
2019-07-23T05:20:57Z,42.805,6.029,13.2957,4.59954,2469.867,2019-7-23T07:21:16Z
2019-07-23T05:24:00Z,42.805,6.029,13.2955,4.59952,2469.853,2019-7-23T07:24:19Z
2019-07-23T05:27:03Z,42.805,6.029,13.2957,4.59953,2469.853,2019-7-23T07:27:22Z
2019-07-23T05:30:07Z,42.805,6.029,13.2953,4.59953,2469.853,2019-7-23T07:30:26Z
2019-07-23T05:33:10Z,42.805,6.029,13.2954,4.59953,2469.844,2019-7-23T07:33:29Z
2019-07-23T05:36:13Z,42.805,6.029,13.2952,4.59953,2469.83,2019-7-23T07:36:32Z
2019-07-23T05:39:16Z,42.805,6.029,13.2953,4.59953,2469.806,2019-7-23T07:39:35Z
2019-07-23T05:42:19Z,42.805,6.029,13.2956,4.59953,2469.853,2019-7-23T07:42:38Z
2019-07-23T05:45:23Z,42.805,6.029,13.2956,4.59953,2469.867,2019-7-23T07:45:42Z
2019-07-23T05:48:26Z,42.805,6.029,13.2955,4.59953,2469.853,2019-7-23T07:48:45Z
2019-07-23T05:51:29Z,42.805,6.029,13.2948,4.59954,2469.83,2019-7-23T07:51:48Z
2019-07-23T05:54:32Z,42.805,6.029,13.2953,4.59954,2469.853,2019-7-23T07:54:51Z
2019-07-23T05:57:35Z,42.805,6.029,13.2955,4.59953,2469.867,2019-7-23T07:57:54Z
2019-07-23T06:00:39Z,42.805,6.029,13.2954,4.59954,2469.83,2019-7-23T08:00:58Z
2019-07-23T06:03:42Z,42.805,6.029,13.2951,4.59954,2469.867,2019-7-23T08:04:01Z
2019-07-23T06:06:45Z,42.805,6.029,13.2953,4.59954,2469.867,2019-7-23T08:07:04Z
2019-07-23T06:09:48Z,42.805,6.029,13.2955,4.59953,2469.83,2019-7-23T08:10:07Z
2019-07-23T06:12:51Z,42.805,6.029,13.2955,4.59954,2469.876,2019-7-23T08:13:10Z
2019-07-23T06:15:54Z,42.805,6.029,13.2957,4.59954,2469.83,2019-7-23T08:16:13Z
2019-07-23T06:18:58Z,42.805,6.029,13.2957,4.59954,2469.853,2019-7-23T08:19:17Z
2019-07-23T06:22:01Z,42.805,6.029,13.2956,4.59956,2469.844,2019-7-23T08:22:20Z
2019-07-23T06:25:04Z,42.805,6.029,13.2953,4.59954,2469.839,2019-7-23T08:25:23Z
2019-07-23T06:28:07Z,42.805,6.029,13.2957,4.59953,2469.853,2019-7-23T08:28:26Z
2019-07-23T06:31:11Z,42.805,6.029,13.2958,4.59953,2469.867,2019-7-23T08:31:30Z
2019-07-23T06:34:14Z,42.805,6.029,13.2952,4.59954,2469.844,2019-7-23T08:34:33Z
2019-07-23T06:37:17Z,42.805,6.029,13.2952,4.59953,2469.844,2019-7-23T08:37:36Z
2019-07-23T06:40:20Z,42.805,6.029,13.2953,4.59953,2469.867,2019-7-23T08:40:39Z
2019-07-23T06:43:23Z,42.805,6.029,13.2956,4.59953,2469.844,2019-7-23T08:43:42Z
2019-07-23T06:46:26Z,42.805,6.029,13.2953,4.59953,2469.853,2019-7-23T08:46:45Z
2019-07-23T06:49:30Z,42.805,6.029,13.2952,4.59953,2469.83,2019-7-23T08:49:49Z
2019-07-23T06:52:33Z,42.805,6.029,13.2954,4.59953,2469.853,2019-7-23T08:52:52Z
2019-07-23T06:55:36Z,42.805,6.029,13.2956,4.59953,2469.867,2019-7-23T08:55:55Z
2019-07-23T06:58:39Z,42.805,6.029,13.2954,4.59952,2469.839,2019-7-23T08:58:58Z
2019-07-23T07:01:42Z,42.805,6.029,13.2952,4.59952,2469.844,2019-7-23T09:02:01Z
2019-07-23T07:04:46Z,42.805,6.029,13.2953,4.59954,2469.853,2019-7-23T09:05:05Z
2019-07-23T07:07:49Z,42.805,6.029,13.2955,4.59954,2469.876,2019-7-23T09:08:08Z
2019-07-23T07:10:52Z,42.805,6.029,13.2953,4.59953,2469.876,2019-7-23T09:11:11Z
2019-07-23T07:13:55Z,42.805,6.029,13.2954,4.59954,2469.867,2019-7-23T09:14:14Z
2019-07-23T07:16:58Z,42.805,6.029,13.2956,4.59955,2469.853,2019-7-23T09:17:17Z
2019-07-23T07:20:02Z,42.805,6.029,13.2953,4.59955,2469.853,2019-7-23T09:20:21Z
2019-07-23T07:23:05Z,42.805,6.029,13.2957,4.59955,2469.867,2019-7-23T09:23:24Z
2019-07-23T07:26:08Z,42.805,6.029,13.2958,4.59955,2469.867,2019-7-23T09:26:27Z
2019-07-23T07:29:11Z,42.805,6.029,13.2955,4.59955,2469.853,2019-7-23T09:29:30Z
2019-07-23T07:32:14Z,42.805,6.029,13.2956,4.59954,2469.844,2019-7-23T09:32:33Z
2019-07-23T07:35:18Z,42.805,6.029,13.2952,4.59955,2469.853,2019-7-23T09:35:37Z
2019-07-23T07:38:21Z,42.805,6.029,13.2955,4.59955,2469.89,2019-7-23T09:38:40Z
2019-07-23T07:41:24Z,42.805,6.029,13.2954,4.59954,2469.867,2019-7-23T09:41:43Z
2019-07-23T07:44:27Z,42.805,6.029,13.2956,4.59955,2469.876,2019-7-23T09:44:46Z
2019-07-23T07:47:31Z,42.805,6.029,13.2954,4.59954,2469.876,2019-7-23T09:47:49Z
2019-07-23T07:50:34Z,42.805,6.029,13.2954,4.59954,2469.867,2019-7-23T09:50:53Z
2019-07-23T07:53:37Z,42.805,6.029,13.2953,4.59956,2469.867,2019-7-23T09:53:56Z
2019-07-23T07:56:40Z,42.805,6.029,13.2953,4.59953,2469.867,2019-7-23T09:56:59Z
2019-07-23T07:59:43Z,42.805,6.029,13.2952,4.59955,2469.876,2019-7-23T10:00:02Z
2019-07-23T08:02:46Z,42.805,6.029,13.2952,4.59955,2469.876,2019-7-23T10:03:05Z
2019-07-23T08:05:50Z,42.805,6.029,13.2960,4.59956,2469.876,2019-7-23T10:06:09Z
2019-07-23T08:08:53Z,42.805,6.029,13.2951,4.59956,2469.853,2019-7-23T10:09:12Z
2019-07-23T08:11:56Z,42.805,6.029,13.2958,4.59954,2469.867,2019-7-23T10:12:15Z
2019-07-23T08:14:59Z,42.805,6.029,13.2954,4.59954,2469.89,2019-7-23T10:15:18Z
2019-07-23T08:18:02Z,42.805,6.029,13.2954,4.59954,2469.89,2019-7-23T10:18:21Z
2019-07-23T08:21:06Z,42.805,6.029,13.2953,4.59955,2469.867,2019-7-23T10:21:25Z
2019-07-23T08:24:09Z,42.805,6.029,13.2954,4.59955,2469.89,2019-7-23T10:24:28Z
2019-07-23T08:27:12Z,42.805,6.029,13.2953,4.59956,2469.867,2019-7-23T10:27:31Z
2019-07-23T08:30:15Z,42.805,6.029,13.2955,4.59956,2469.853,2019-7-23T10:30:34Z
2019-07-23T08:33:18Z,42.805,6.029,13.2956,4.59954,2469.876,2019-7-23T10:33:37Z
2019-07-23T08:36:22Z,42.805,6.029,13.2954,4.59953,2469.89,2019-7-23T10:36:41Z
2019-07-23T08:39:25Z,42.805,6.029,13.2955,4.59956,2469.867,2019-7-23T10:39:44Z
2019-07-23T08:42:28Z,42.805,6.029,13.2956,4.59956,2469.9,2019-7-23T10:42:47Z
2019-07-23T08:45:31Z,42.805,6.029,13.2955,4.59955,2469.876,2019-7-23T10:45:50Z
2019-07-23T08:48:34Z,42.805,6.029,13.2953,4.59954,2469.9,2019-7-23T10:48:53Z
2019-07-23T08:51:38Z,42.805,6.029,13.2953,4.59954,2469.876,2019-7-23T10:51:56Z
2019-07-23T08:54:41Z,42.805,6.029,13.2956,4.59954,2469.83,2019-7-23T10:55:00Z
2019-07-23T08:57:44Z,42.805,6.029,13.2953,4.59955,2469.89,2019-7-23T10:58:03Z
2019-07-23T09:00:47Z,42.805,6.029,13.2956,4.59954,2469.914,2019-7-23T11:01:06Z
2019-07-23T09:03:50Z,42.805,6.029,13.2956,4.59954,2469.914,2019-7-23T11:04:09Z
2019-07-23T09:06:54Z,42.805,6.029,13.2952,4.59954,2469.89,2019-7-23T11:07:12Z
2019-07-23T09:09:57Z,42.805,6.029,13.2953,4.59955,2469.876,2019-7-23T11:10:16Z
2019-07-23T09:13:00Z,42.805,6.029,13.2952,4.59956,2469.9,2019-7-23T11:13:19Z
2019-07-23T09:16:03Z,42.805,6.029,13.2955,4.59954,2469.9,2019-7-23T11:16:22Z
2019-07-23T09:19:06Z,42.805,6.029,13.2954,4.59955,2469.89,2019-7-23T11:19:25Z
2019-07-23T09:22:09Z,42.805,6.029,13.2953,4.59955,2469.9,2019-7-23T11:22:28Z
2019-07-23T09:25:13Z,42.805,6.029,13.2953,4.59954,2469.853,2019-7-23T11:25:32Z
2019-07-23T09:28:16Z,42.805,6.029,13.2952,4.59956,2469.923,2019-7-23T11:28:35Z
2019-07-23T09:31:19Z,42.805,6.029,13.2955,4.59954,2469.923,2019-7-23T11:31:38Z
2019-07-23T09:34:22Z,42.805,6.029,13.2955,4.59954,2469.9,2019-7-23T11:34:41Z
2019-07-23T09:37:25Z,42.805,6.029,13.2949,4.59954,2469.9,2019-7-23T11:37:44Z
2019-07-23T09:40:29Z,42.805,6.029,13.2954,4.59955,2469.9,2019-7-23T11:40:48Z
2019-07-23T09:43:32Z,42.805,6.029,13.2954,4.59956,2469.923,2019-7-23T11:43:51Z
2019-07-23T09:46:35Z,42.805,6.029,13.2956,4.59954,2469.923,2019-7-23T11:46:54Z
2019-07-23T09:49:38Z,42.805,6.029,13.2952,4.59954,2469.923,2019-7-23T11:49:57Z
2019-07-23T09:52:42Z,42.805,6.029,13.2956,4.59954,2469.9,2019-7-23T11:53:01Z
2019-07-23T09:55:45Z,42.805,6.029,13.2955,4.59955,2469.937,2019-7-23T11:56:04Z
2019-07-23T09:58:48Z,42.805,6.029,13.2955,4.59956,2469.923,2019-7-23T11:59:07Z
2019-07-23T10:01:51Z,42.805,6.029,13.2957,4.59954,2469.937,2019-7-23T12:02:10Z
2019-07-23T10:04:54Z,42.805,6.029,13.2958,4.59954,2469.947,2019-7-23T12:05:13Z
2019-07-23T10:07:58Z,42.805,6.029,13.2952,4.59954,2469.923,2019-7-23T12:08:17Z
2019-07-23T10:11:01Z,42.805,6.029,13.2956,4.59954,2469.9,2019-7-23T12:11:20Z
2019-07-23T10:14:04Z,42.805,6.029,13.2958,4.59954,2469.923,2019-7-23T12:14:23Z
2019-07-23T10:17:07Z,42.805,6.029,13.2953,4.59954,2469.9,2019-7-23T12:17:26Z
2019-07-23T10:20:10Z,42.805,6.029,13.2955,4.59954,2469.947,2019-7-23T12:20:29Z
2019-07-23T10:23:14Z,42.805,6.029,13.2953,4.59955,2469.96,2019-7-23T12:23:33Z
2019-07-23T10:26:17Z,42.805,6.029,13.2955,4.59954,2469.923,2019-7-23T12:26:36Z
2019-07-23T10:29:20Z,42.805,6.029,13.2951,4.59954,2469.9,2019-7-23T12:29:39Z
2019-07-23T10:32:23Z,42.805,6.029,13.2955,4.59954,2469.914,2019-7-23T12:32:42Z
2019-07-23T10:35:26Z,42.805,6.029,13.2956,4.59954,2469.937,2019-7-23T12:35:45Z
2019-07-23T10:38:29Z,42.805,6.029,13.2955,4.59954,2469.863,2019-7-23T12:38:48Z
2019-07-23T10:41:33Z,42.805,6.029,13.2953,4.59954,2469.914,2019-7-23T12:41:52Z
2019-07-23T10:44:37Z,42.805,6.029,13.2957,4.59954,2469.947,2019-7-23T12:44:56Z
2019-07-23T10:47:40Z,42.805,6.029,13.2959,4.59955,2469.937,2019-7-23T12:47:59Z
2019-07-23T10:50:43Z,42.805,6.029,13.2956,4.59955,2469.923,2019-7-23T12:51:02Z
2019-07-23T10:53:46Z,42.805,6.029,13.2953,4.59954,2469.923,2019-7-23T12:54:05Z
2019-07-23T10:56:50Z,42.805,6.029,13.2953,4.59954,2469.914,2019-7-23T12:57:08Z
2019-07-23T10:59:53Z,42.805,6.029,13.2952,4.59953,2469.914,2019-7-23T13:00:12Z
2019-07-23T11:02:56Z,42.805,6.029,13.2951,4.59954,2469.9,2019-7-23T13:03:15Z
2019-07-23T11:05:59Z,42.805,6.029,13.2954,4.59954,2469.937,2019-7-23T13:06:18Z
2019-07-23T11:09:02Z,42.805,6.029,13.2953,4.59954,2469.9,2019-7-23T13:09:21Z
2019-07-23T11:12:05Z,42.805,6.029,13.2953,4.59954,2469.923,2019-7-23T13:12:24Z
2019-07-23T11:15:09Z,42.805,6.029,13.2957,4.59954,2469.9,2019-7-23T13:15:28Z
2019-07-23T11:18:12Z,42.805,6.029,13.2957,4.59954,2469.923,2019-7-23T13:18:31Z
2019-07-23T11:21:15Z,42.805,6.029,13.2954,4.59954,2469.9,2019-7-23T13:21:34Z
2019-07-23T11:24:18Z,42.805,6.029,13.2957,4.59954,2469.923,2019-7-23T13:24:37Z
2019-07-23T11:27:22Z,42.805,6.029,13.2954,4.59953,2469.9,2019-7-23T13:27:41Z
2019-07-23T11:30:25Z,42.805,6.029,13.2958,4.59954,2469.923,2019-7-23T13:30:44Z
2019-07-23T11:33:28Z,42.805,6.029,13.2953,4.59954,2469.923,2019-7-23T13:33:47Z
2019-07-23T11:36:31Z,42.805,6.029,13.2953,4.59955,2469.9,2019-7-23T13:36:50Z
2019-07-23T11:39:34Z,42.805,6.029,13.2957,4.59953,2469.914,2019-7-23T13:39:53Z
2019-07-23T11:42:38Z,42.805,6.029,13.2958,4.59954,2469.9,2019-7-23T13:42:57Z
2019-07-23T11:45:41Z,42.805,6.029,13.2957,4.59955,2469.914,2019-7-23T13:46:00Z
2019-07-23T11:48:44Z,42.805,6.029,13.2958,4.59954,2469.9,2019-7-23T13:49:03Z
2019-07-23T11:51:47Z,42.805,6.029,13.2956,4.59954,2469.937,2019-7-23T13:52:06Z
2019-07-23T11:54:50Z,42.805,6.029,13.2955,4.59953,2469.9,2019-7-23T13:55:09Z
2019-07-23T11:57:54Z,42.805,6.029,13.2952,4.59954,2469.937,2019-7-23T13:58:13Z
2019-07-23T12:00:57Z,42.805,6.029,13.2955,4.59954,2469.923,2019-7-23T14:01:16Z
2019-07-23T12:04:00Z,42.805,6.029,13.2955,4.59954,2469.886,2019-7-23T14:04:19Z
2019-07-23T12:07:03Z,42.805,6.029,13.2958,4.59954,2469.876,2019-7-23T14:07:22Z
2019-07-23T12:10:06Z,42.805,6.029,13.2957,4.59953,2469.9,2019-7-23T14:10:25Z
2019-07-23T12:13:10Z,42.805,6.029,13.2955,4.59953,2469.914,2019-7-23T14:13:29Z
2019-07-23T12:16:13Z,42.805,6.029,13.2953,4.59956,2469.876,2019-7-23T14:16:32Z
2019-07-23T12:19:16Z,42.805,6.029,13.2956,4.59954,2469.9,2019-7-23T14:19:35Z
2019-07-23T12:22:19Z,42.805,6.029,13.2957,4.59953,2469.923,2019-7-23T14:22:38Z
2019-07-23T12:25:22Z,42.805,6.029,13.2953,4.59953,2469.9,2019-7-23T14:25:41Z
2019-07-23T12:28:26Z,42.805,6.029,13.2951,4.59954,2469.9,2019-7-23T14:28:45Z
2019-07-23T12:31:29Z,42.805,6.029,13.2953,4.59954,2469.89,2019-7-23T14:31:48Z
2019-07-23T12:34:32Z,42.805,6.029,13.2957,4.59954,2469.89,2019-7-23T14:34:51Z
2019-07-23T12:37:35Z,42.805,6.029,13.2954,4.59954,2469.914,2019-7-23T14:37:54Z
2019-07-23T12:40:38Z,42.805,6.029,13.2954,4.59953,2469.9,2019-7-23T14:40:57Z
2019-07-23T12:43:42Z,42.805,6.029,13.2955,4.59954,2469.9,2019-7-23T14:44:01Z
2019-07-23T12:46:45Z,42.805,6.029,13.2955,4.59954,2469.853,2019-7-23T14:47:04Z
2019-07-23T12:49:48Z,42.805,6.029,13.2956,4.59954,2469.89,2019-7-23T14:50:07Z
2019-07-23T12:52:51Z,42.805,6.029,13.2954,4.59954,2469.853,2019-7-23T14:53:10Z
2019-07-23T12:55:54Z,42.805,6.029,13.2952,4.59954,2469.886,2019-7-23T14:56:13Z
2019-07-23T12:58:58Z,42.805,6.029,13.2956,4.59954,2469.853,2019-7-23T14:59:17Z
2019-07-23T13:02:01Z,42.805,6.029,13.2956,4.59954,2469.914,2019-7-23T15:02:20Z
2019-07-23T13:05:04Z,42.805,6.029,13.2953,4.59953,2469.876,2019-7-23T15:05:23Z
2019-07-23T13:08:07Z,42.805,6.029,13.2955,4.59954,2469.876,2019-7-23T15:08:26Z
2019-07-23T13:11:10Z,42.805,6.029,13.2951,4.59955,2469.89,2019-7-23T15:11:29Z
2019-07-23T13:14:14Z,42.805,6.029,13.2959,4.59952,2469.853,2019-7-23T15:14:33Z
2019-07-23T13:17:17Z,42.805,6.029,13.2954,4.59953,2469.876,2019-7-23T15:17:36Z
2019-07-23T13:20:20Z,42.805,6.029,13.2955,4.59952,2469.89,2019-7-23T15:20:39Z
2019-07-23T13:23:23Z,42.805,6.029,13.2952,4.59952,2469.853,2019-7-23T15:23:42Z
2019-07-23T13:26:26Z,42.805,6.029,13.2952,4.59954,2469.853,2019-7-23T15:26:45Z
2019-07-23T13:29:30Z,42.805,6.029,13.2953,4.59953,2469.876,2019-7-23T15:29:49Z
2019-07-23T13:32:33Z,42.805,6.029,13.2951,4.59952,2469.853,2019-7-23T15:32:52Z
2019-07-23T13:35:36Z,42.805,6.029,13.2953,4.59953,2469.853,2019-7-23T15:35:55Z
2019-07-23T13:38:39Z,42.805,6.029,13.2954,4.59955,2469.9,2019-7-23T15:38:58Z
2019-07-23T13:41:42Z,42.805,6.029,13.2957,4.59954,2469.853,2019-7-23T15:42:01Z
2019-07-23T13:44:46Z,42.805,6.029,13.2957,4.59953,2469.89,2019-7-23T15:45:05Z
2019-07-23T13:47:49Z,42.805,6.029,13.2953,4.59953,2469.89,2019-7-23T15:48:08Z
2019-07-23T13:50:52Z,42.805,6.029,13.2961,4.59952,2469.83,2019-7-23T15:51:11Z
2019-07-23T13:53:55Z,42.805,6.029,13.2957,4.59953,2469.853,2019-7-23T15:54:14Z
2019-07-23T13:56:59Z,42.805,6.029,13.2954,4.59954,2469.83,2019-7-23T15:57:17Z
2019-07-23T14:00:02Z,42.805,6.029,13.2954,4.59954,2469.853,2019-7-23T16:00:21Z
2019-07-23T14:03:05Z,42.805,6.029,13.2952,4.59954,2469.876,2019-7-23T16:03:24Z
2019-07-23T14:06:08Z,42.805,6.029,13.2954,4.59954,2469.83,2019-7-23T16:06:27Z
2019-07-23T14:09:11Z,42.805,6.029,13.2958,4.59954,2469.844,2019-7-23T16:09:30Z
2019-07-23T14:12:14Z,42.805,6.029,13.2953,4.59955,2469.844,2019-7-23T16:12:33Z
2019-07-23T14:15:18Z,42.805,6.029,13.2953,4.59955,2469.83,2019-7-23T16:15:37Z
2019-07-23T14:18:21Z,42.805,6.029,13.2954,4.59955,2469.867,2019-7-23T16:18:40Z
2019-07-23T14:21:24Z,42.805,6.029,13.2954,4.59954,2469.844,2019-7-23T16:21:43Z
2019-07-23T14:24:28Z,42.805,6.029,13.2953,4.59954,2469.853,2019-7-23T16:24:46Z
2019-07-23T14:27:31Z,42.805,6.029,13.2956,4.59953,2469.853,2019-7-23T16:27:50Z
2019-07-23T14:30:34Z,42.805,6.029,13.2952,4.59953,2469.876,2019-7-23T16:30:53Z
2019-07-23T14:33:37Z,42.805,6.029,13.2953,4.59954,2469.867,2019-7-23T16:33:56Z
2019-07-23T14:36:40Z,42.805,6.029,13.2956,4.59953,2469.83,2019-7-23T16:36:59Z
2019-07-23T14:39:44Z,42.805,6.029,13.2953,4.59954,2469.867,2019-7-23T16:40:03Z
2019-07-23T14:42:47Z,42.805,6.029,13.2955,4.59954,2469.83,2019-7-23T16:43:06Z
2019-07-23T14:45:50Z,42.805,6.029,13.2955,4.59953,2469.867,2019-7-23T16:46:09Z
2019-07-23T14:48:53Z,42.805,6.029,13.2952,4.59953,2469.853,2019-7-23T16:49:12Z
2019-07-23T14:51:56Z,42.805,6.029,13.2954,4.59954,2469.83,2019-7-23T16:52:15Z
2019-07-23T14:55:00Z,42.805,6.029,13.2958,4.59954,2469.853,2019-7-23T16:55:19Z
2019-07-23T14:58:03Z,42.805,6.029,13.2956,4.59955,2469.839,2019-7-23T16:58:22Z
2019-07-23T15:01:06Z,42.805,6.029,13.2954,4.59954,2469.867,2019-7-23T17:01:25Z
2019-07-23T15:04:09Z,42.805,6.029,13.2957,4.59956,2469.83,2019-7-23T17:04:28Z
2019-07-23T15:07:13Z,42.805,6.029,13.2954,4.59954,2469.83,2019-7-23T17:07:32Z
2019-07-23T15:10:16Z,42.805,6.029,13.2956,4.59953,2469.821,2019-7-23T17:10:35Z
2019-07-23T15:13:19Z,42.805,6.029,13.2958,4.59953,2469.821,2019-7-23T17:13:38Z